Theta_e
306 302 308 308 295 293 287 292 296 298 298 300 301 299 297 298 297 295 320 336 337 339 346 347 348 350 349 349 348 348 348 347 345 346 346 345 345 345 344 344 345 344 340 341 342 340 338 337 338
299 307 310 301 285 284 284 292 296 298 302 303 301 299 297 299 311 321 325 335 338 340 345 345 346 349 349 349 348 348 348 347 346 345 344 344 344 343 342 342 344 343 341 340 339 339 337 336 337
298 309 300 296 285 280 282 287 295 298 298 298 298 300 299 300 313 320 328 334 338 340 344 345 345 349 350 349 348 347 348 347 347 346 344 343 343 344 345 343 343 344 341 338 338 337 335 335 334
298 301 296 288 286 288 285 290 287 292 296 297 294 294 301 316 313 314 331 335 336 340 343 343 346 350 350 348 348 347 348 348 346 347 347 346 345 346 345 344 343 343 341 338 338 337 335 334 335
296 293 284 282 283 288 292 287 286 289 290 291 292 292 294 308 300 302 314 335 334 338 342 342 345 348 349 348 348 346 347 347 347 348 347 346 344 344 343 343 343 342 339 339 337 338 335 336 335
289 290 280 277 281 287 285 285 287 285 286 288 288 287 294 300 298 300 305 328 337 339 342 342 338 342 345 346 346 345 347 347 347 346 346 345 344 343 343 343 340 340 338 336 335 334 335 335 333
286 283 277 278 281 284 284 286 284 283 284 288 288 291 299 297 298 301 303 315 331 340 340 342 343 341 337 341 341 342 344 344 344 344 344 342 341 341 341 339 338 337 338 336 335 334 333 332 331
289 284 278 279 280 282 283 285 286 284 285 290 289 291 290 295 299 302 303 308 313 332 338 338 342 344 344 343 335 336 339 339 340 339 337 335 335 337 336 334 336 337 337 335 334 333 331 331 331
289 279 277 279 281 281 284 283 286 288 286 286 289 290 295 296 299 299 300 300 305 310 325 336 338 340 342 343 338 332 333 334 334 334 331 330 335 335 331 330 333 336 334 332 332 332 331 329 327
283 277 277 283 281 280 283 283 284 284 283 284 287 290 292 295 294 295 296 298 299 303 309 318 332 337 339 340 341 338 339 338 337 336 333 334 333 333 332 326 328 331 330 329 332 333 330 324 317
282 278 282 282 283 285 284 283 284 282 281 284 283 287 290 292 293 293 295 297 300 304 307 312 320 334 337 338 339 338 339 338 337 335 333 334 332 330 329 327 328 326 323 325 329 328 321 317 314
279 283 284 284 286 286 284 286 284 284 285 287 287 289 290 291 292 293 294 297 298 301 303 309 315 322 334 336 338 337 336 337 337 336 334 333 331 329 328 327 326 324 324 322 322 321 318 316 313
280 282 286 287 287 286 287 284 283 284 288 290 290 290 289 291 292 293 295 297 299 300 302 305 310 320 329 334 337 335 336 336 337 336 334 332 331 329 328 326 325 324 323 323 320 318 316 313 311
284 284 285 286 285 286 284 283 283 284 286 287 288 289 290 290 292 293 294 296 298 300 302 308 310 313 322 329 332 334 336 337 336 335 334 332 330 328 327 325 324 323 323 322 320 318 314 312 310
285 281 282 283 284 284 286 281 281 286 287 286 288 289 291 291 293 293 294 296 298 300 303 304 306 312 313 324 329 332 336 337 335 334 334 333 331 328 327 325 323 322 322 319 318 317 314 311 310
280 279 275 281 284 285 283 277 283 287 285 286 287 288 290 291 292 293 294 296 297 300 300 304 306 308 311 318 328 329 334 335 335 334 334 333 331 328 326 325 325 322 319 319 318 316 313 310 308
273 268 275 278 284 283 282 279 283 287 287 286 287 288 289 290 292 292 293 294 295 298 300 303 303 303 305 313 324 328 331 334 333 334 333 332 331 329 326 325 325 323 320 318 317 314 316 310 306
271 275 277 277 280 282 280 280 284 286 286 286 286 286 288 290 291 293 294 295 295 296 298 300 303 303 303 306 318 326 328 330 332 330 332 332 331 329 327 325 324 323 321 319 316 315 313 310 308
277 277 276 279 282 280 279 280 282 285 285 282 281 281 283 284 288 290 292 294 294 294 297 298 301 302 303 303 312 321 322 326 327 328 328 330 332 329 327 325 323 322 320 320 316 315 310 308 308
276 275 275 279 281 281 280 279 281 283 281 281 280 281 282 283 285 287 289 290 291 292 294 299 301 302 302 306 312 322 322 325 327 328 326 325 326 329 328 327 324 322 320 319 316 316 312 311 309
273 274 273 276 280 280 277 273 277 280 282 281 282 282 283 282 283 285 287 289 290 289 291 299 301 302 303 305 311 318 321 320 324 326 325 327 327 328 327 328 326 323 322 319 317 315 314 310 308
271 280 279 277 273 266 277 266 274 275 278 279 279 280 281 282 283 285 287 289 290 290 290 296 300 300 304 308 315 315 315 316 321 320 323 327 329 328 328 327 326 324 323 322 319 318 316 313 309
276 281 278 276 269 274 268 269 271 275 273 275 277 279 280 281 282 284 288 291 291 291 289 291 297 299 300 311 311 313 312 314 316 318 321 323 325 326 327 326 326 325 324 323 321 318 316 315 313
282 276 273 273 268 261 265 271 268 271 273 275 277 278 279 281 282 285 290 291 290 289 291 290 295 299 305 306 308 312 313 312 313 315 321 323 325 324 324 326 325 325 324 323 321 319 316 316 315
276 266 259 261 260 261 263 267 267 275 276 276 276 277 279 280 281 284 288 291 291 295 297 300 302 303 305 305 306 306 309 312 312 314 316 319 323 323 324 325 325 325 324 323 321 318 316 315 314
270 267 260 257 260 265 266 262 270 278 279 278 278 278 279 279 281 284 287 291 292 293 294 296 298 297 299 299 301 301 305 307 309 310 313 311 313 320 321 325 325 325 324 322 320 318 317 315 314
271 265 275 269 260 259 264 266 273 278 276 276 277 277 277 279 281 283 286 289 290 291 292 293 295 295 295 296 299 298 299 301 304 305 307 305 305 306 307 308 308 306 307 314 319 319 317 317 316
272 275 266 265 260 257 261 257 264 271 272 273 274 275 276 279 280 282 285 287 288 289 290 291 292 292 293 294 295 295 295 297 297 299 300 300 300 301 301 300 300 299 299 300 302 302 301 304 303
271 269 267 267 271 266 264 263 274 273 273 273 274 275 276 278 279 281 284 286 287 287 288 289 290 290 290 291 292 292 292 293 294 294 295 294 295 296 296 296 294 294 294 295 294 294 294 294 294
275 272 273 269 265 270 270 267 277 276 275 274 274 275 276 278 279 280 282 284 284 285 286 286 287 288 288 289 289 290 291 291 291 291 292 293 292 292 292 292 291 291 291 291 291 290 290 290 290
Wind_Speed
9 7 1 5 5 5 4 8 4 4 3 1 3 2 5 3 3 6 5 8 6 10 12 14 18 19 19 19 19 18 19 19 19 17 17 16 17 17 17 16 14 15 17 15 15 15 16 14 12
6 3 4 3 6 4 7 6 11 4 6 10 5 3 2 7 2 4 1 7 8 13 13 13 14 18 18 18 18 19 18 19 20 19 18 17 16 16 16 16 13 14 17 17 14 14 15 14 11
5 3 5 5 5 8 7 5 8 6 8 5 8 3 3 4 4 5 9 6 7 12 14 14 15 18 18 18 18 18 18 19 19 19 19 18 18 18 16 15 14 16 17 16 13 15 15 14 14
3 5 5 5 8 6 6 3 8 8 6 6 5 8 7 14 10 15 15 6 4 12 14 16 19 19 20 19 18 19 19 19 19 20 20 18 16 15 15 14 12 13 16 15 14 17 18 15 15
5 3 4 1 5 6 4 3 5 5 4 5 8 7 9 5 12 20 19 9 4 8 10 13 21 20 19 19 18 19 19 19 19 18 19 19 16 14 14 13 12 13 12 13 16 13 17 14 15
5 3 3 4 5 4 3 6 1 2 1 10 7 8 7 2 20 17 19 15 6 5 7 7 14 16 18 20 19 18 18 19 19 19 19 19 18 16 14 14 14 14 11 13 13 13 12 13 12
6 4 5 3 4 3 2 8 3 4 6 3 5 5 9 6 13 15 13 16 11 4 6 7 11 11 12 16 18 18 17 16 18 18 18 17 18 16 15 13 14 14 13 14 13 12 10 9 10
4 4 1 3 2 4 2 6 3 3 6 7 3 4 8 7 14 15 11 9 14 9 6 8 11 12 13 13 15 15 14 14 13 13 14 12 13 13 13 12 12 15 13 14 12 10 10 10 9
2 4 2 4 3 3 3 7 3 4 6 4 4 4 8 19 12 15 13 10 9 9 9 7 9 11 13 13 12 14 15 14 13 12 14 11 7 9 10 10 12 14 13 14 14 12 10 8 9
5 3 4 3 2 3 4 4 5 5 9 5 14 10 9 8 13 14 15 13 8 9 11 7 11 11 12 10 12 11 10 11 10 9 10 7 7 8 10 9 14 13 11 15 16 15 11 8 3
3 3 0 3 3 4 5 6 4 4 7 13 8 13 17 11 13 13 14 11 9 7 5 8 9 12 10 10 8 7 6 6 7 10 10 9 7 5 6 5 6 7 9 4 11 9 4 6 5
5 3 3 6 4 6 5 5 7 13 20 7 10 14 15 17 15 15 14 13 10 10 11 7 6 10 11 8 9 10 8 8 8 10 12 9 6 8 7 6 7 7 5 7 5 4 5 5 6
1 3 6 9 16 13 11 15 13 20 17 16 15 14 14 16 14 13 12 13 11 9 11 9 8 6 9 12 9 10 10 10 10 10 12 10 9 9 8 7 7 7 6 7 6 6 5 5 5
4 9 12 11 11 9 9 8 1 3 3 9 8 11 12 12 14 11 11 13 11 9 6 7 10 7 7 12 11 10 10 11 10 10 11 14 10 9 9 8 8 7 8 6 7 7 6 5 4
4 8 7 4 2 6 4 8 9 14 11 11 13 12 12 13 11 12 12 12 11 8 5 8 12 9 6 9 12 10 11 11 11 11 15 15 13 12 11 9 8 8 7 7 5 4 4 4 4
6 3 7 3 10 5 5 13 4 11 7 14 13 11 15 20 14 12 10 11 10 10 8 6 5 15 9 9 10 7 12 10 10 11 12 17 15 13 11 9 9 8 7 7 7 6 5 4 5
7 5 12 10 2 4 6 18 6 11 20 24 21 19 17 19 17 10 10 11 10 11 8 11 7 11 13 10 8 8 9 10 8 9 11 18 16 15 12 9 9 11 8 8 7 4 6 5 4
10 11 9 17 4 8 18 27 22 18 18 18 13 14 16 15 15 11 11 10 9 10 10 11 8 10 11 12 7 6 5 3 6 4 8 14 12 16 12 8 9 10 9 8 7 8 6 3 5
7 14 22 22 19 17 18 20 20 19 14 5 7 10 13 13 14 13 12 11 11 9 12 10 9 11 5 10 10 4 5 4 3 3 3 6 11 18 13 8 9 9 11 12 11 8 6 5 4
9 16 19 15 4 14 18 22 26 7 5 4 6 10 14 17 17 17 17 14 10 11 10 13 13 13 9 8 9 3 3 4 4 6 9 11 11 6 6 8 10 10 8 10 11 11 5 5 7
5 13 7 18 22 18 12 8 4 2 3 11 15 14 14 14 18 19 18 16 13 9 8 12 10 10 9 10 11 3 2 2 3 4 6 10 17 16 16 14 9 10 9 9 11 12 13 8 5
11 6 17 21 12 4 6 7 2 5 6 17 19 17 17 17 18 16 19 19 14 10 7 8 9 10 7 12 9 6 6 7 5 4 4 6 11 12 12 10 9 10 8 10 10 11 12 8 9
12 20 19 15 5 5 7 2 4 6 11 22 23 22 20 19 17 19 20 17 15 11 6 8 8 11 9 9 9 1 4 2 3 3 5 6 7 8 12 12 10 8 8 11 11 10 12 10 8
10 12 6 3 1 3 4 2 3 5 12 20 22 20 21 21 19 17 18 15 12 8 7 7 12 13 8 4 2 3 2 6 4 3 3 4 5 7 7 9 12 14 14 14 11 11 13 11 9
9 7 6 10 7 5 3 3 7 4 15 14 19 21 21 18 17 17 17 13 7 6 5 1 2 7 4 3 2 1 2 6 5 3 4 4 4 5 8 10 10 9 10 14 11 11 10 11 9
5 5 4 5 5 12 7 4 6 4 13 15 15 17 17 16 15 15 16 11 9 10 10 8 6 8 4 4 4 3 5 3 3 4 4 3 1 3 0 6 7 11 12 11 11 8 9 9 9
8 5 4 6 2 4 5 7 5 12 19 18 18 16 19 19 16 15 14 10 10 10 10 9 7 6 5 4 3 2 2 3 2 3 3 2 5 5 6 8 9 9 8 4 4 5 7 7 8
5 2 6 4 7 7 7 6 6 23 25 20 20 17 16 15 15 14 12 9 9 9 8 8 8 6 5 3 2 2 8 4 2 3 3 6 6 6 8 10 8 6 8 9 7 5 6 5 4
6 6 3 1 3 4 7 6 4 19 18 20 17 16 16 15 14 13 11 8 9 8 9 8 7 7 6 6 6 6 7 5 4 5 6 8 9 7 5 7 9 7 7 7 7 10 7 8 6
4 2 3 2 6 4 5 6 5 17 14 15 15 14 14 13 14 12 10 10 10 10 8 8 7 6 6 7 5 6 7 6 6 8 10 9 9 9 9 9 10 10 11 9 10 10 8 9 10
Wind_Direction
331 318 20 44 66 57 285 266 294 262 253 162 317 213 226 294 177 215 314 188 145 147 159 165 169 171 168 165 158 155 153 154 158 160 162 163 160 153 154 155 158 153 153 144 146 145 132 136 133
322 335 46 87 97 122 249 245 249 268 282 324 318 277 254 259 261 298 135 219 166 155 162 168 174 172 173 167 163 160 159 158 157 161 164 164 163 162 160 160 167 170 155 147 154 139 142 139 145
314 27 90 120 139 193 214 235 287 314 320 326 325 345 300 300 2 326 323 199 163 163 164 171 174 176 174 173 168 166 165 162 161 161 164 167 168 165 162 160 147 138 141 140 153 145 145 147 130
21 14 29 121 206 247 212 19 344 340 338 41 2 300 329 57 2 352 345 330 211 173 169 170 175 181 178 176 175 172 171 169 168 167 164 164 157 152 155 161 158 156 159 150 146 152 150 153 144
32 57 82 178 242 266 264 45 320 2 351 333 341 304 294 41 353 4 354 344 334 296 180 175 178 180 180 177 181 180 176 176 173 170 164 161 162 163 162 170 160 150 138 142 143 141 145 159 136
48 88 86 222 237 255 30 336 51 57 11 310 19 313 262 70 15 352 351 340 316 286 251 195 187 181 180 181 182 185 186 183 179 177 168 165 163 162 167 166 149 135 153 158 141 154 151 148 141
111 106 208 208 223 257 148 325 45 331 322 274 297 280 291 349 355 350 347 347 319 293 242 229 199 190 181 180 182 185 190 189 178 185 172 169 164 164 165 163 157 157 169 161 150 154 151 151 151
98 86 152 247 195 264 15 359 328 359 288 307 141 247 307 310 347 340 345 350 355 322 242 249 219 205 190 189 178 181 185 186 180 175 169 165 162 162 160 164 167 169 160 156 153 156 164 171 163
79 69 223 250 195 285 356 8 291 298 268 275 266 255 271 296 323 330 337 340 346 353 351 286 231 221 212 197 189 183 180 180 181 172 165 163 167 165 162 159 159 157 171 174 164 164 175 167 153
69 111 237 254 315 290 294 283 291 315 286 280 284 265 270 310 329 328 329 324 329 329 334 336 297 224 219 208 196 190 192 185 183 178 174 164 167 167 165 167 161 161 168 184 168 170 171 144 154
335 210 144 274 284 7 288 289 228 279 261 246 266 287 296 302 300 298 298 299 298 303 299 311 311 283 227 217 201 192 183 185 182 175 171 169 165 168 163 160 170 167 160 168 170 170 154 160 160
348 298 339 291 314 321 292 273 277 226 255 278 256 268 286 292 293 296 293 287 292 298 299 289 288 296 252 226 206 195 179 183 183 184 175 173 172 179 172 169 166 165 170 154 150 143 162 172 174
195 299 310 291 293 282 275 264 259 265 269 273 268 265 263 273 276 275 274 284 279 276 279 289 294 294 290 244 214 199 189 189 185 181 183 179 180 181 172 173 167 171 164 166 160 162 165 179 191
307 284 290 284 291 277 282 274 282 278 294 287 261 262 261 259 266 278 275 275 276 273 262 266 299 296 292 289 270 218 187 193 183 187 185 186 181 180 180 174 177 172 175 170 169 170 167 180 181
280 307 310 303 272 280 327 273 231 261 280 269 276 282 275 262 257 256 256 264 272 257 260 301 310 290 315 305 276 249 200 193 188 187 190 190 184 183 180 178 177 178 172 154 146 155 149 168 179
348 340 351 270 311 275 100 281 275 258 301 295 297 280 283 284 268 262 254 256 262 267 267 265 316 295 308 313 287 265 212 196 200 198 187 190 188 178 179 184 185 168 162 165 171 172 171 182 188
9 297 298 310 223 270 194 285 279 307 301 289 291 294 288 288 284 255 258 256 260 259 230 222 183 301 312 286 303 288 251 209 197 201 196 193 181 178 180 185 183 167 169 177 177 174 184 180 191
297 311 276 287 288 271 284 274 281 280 267 278 308 328 316 290 286 278 273 263 255 255 247 261 237 227 286 291 289 296 271 229 212 245 193 204 178 175 185 185 185 170 174 176 182 178 188 166 186
268 278 288 287 283 286 280 281 288 289 284 29 346 335 336 334 326 322 314 302 276 252 249 227 229 235 254 285 277 283 258 241 225 214 109 223 241 171 176 185 182 182 179 185 185 181 175 193 143
255 283 292 288 274 304 293 295 290 328 95 77 352 339 339 329 327 323 317 312 301 274 234 225 226 210 223 252 270 214 230 212 222 210 192 191 224 158 194 203 187 190 187 182 183 188 170 189 163
266 285 281 287 313 289 289 296 99 360 82 0 1 347 335 330 325 320 315 310 303 295 256 220 217 249 208 264 262 256 265 260 186 204 212 191 198 203 190 196 183 194 197 194 189 190 193 186 181
312 254 297 297 321 306 52 288 311 335 346 0 351 342 334 332 327 318 314 307 300 292 283 220 209 241 226 213 258 208 225 211 228 219 210 205 192 186 170 185 189 184 200 205 202 203 200 177 190
256 306 304 295 241 296 328 264 278 4 346 344 340 337 334 332 329 320 316 305 293 281 252 261 176 218 246 227 202 305 243 194 243 229 201 184 193 189 190 188 187 201 210 218 209 205 206 203 192
321 311 353 14 104 16 262 360 350 15 336 330 333 330 329 329 330 322 313 314 285 290 284 201 200 194 187 253 33 168 329 283 223 218 217 205 186 192 194 196 205 213 215 214 212 208 199 202 208
8 8 340 2 4 251 284 320 241 194 358 337 323 325 326 325 326 328 326 331 337 8 5 48 171 146 84 74 297 288 223 259 306 265 214 200 200 194 207 206 212 214 215 211 191 193 198 204 199
339 90 119 299 317 302 355 263 278 193 352 337 328 326 321 323 330 332 333 343 1 18 24 22 34 70 35 357 311 335 221 256 273 277 294 134 65 298 199 208 224 216 214 213 181 185 201 195 200
306 26 216 263 184 10 284 293 312 351 335 338 341 334 331 331 333 336 335 338 358 13 23 20 11 35 46 360 323 287 346 5 304 278 289 110 86 74 42 68 62 28 26 14 212 214 205 199 202
136 304 356 359 330 309 292 290 266 341 346 341 340 339 332 328 338 341 335 340 357 12 16 25 13 15 26 20 334 58 55 27 350 60 41 69 67 65 82 68 57 56 39 46 32 59 28 43 40
349 353 343 159 263 303 303 290 293 355 340 333 335 334 332 337 339 338 334 352 1 14 16 11 22 9 27 29 25 48 55 45 49 66 65 61 60 47 67 86 90 57 67 50 65 59 56 70 60
146 253 255 288 300 257 258 289 335 2 337 333 333 333 335 346 346 338 349 7 11 16 7 12 21 30 29 45 40 72 71 65 71 67 62 68 71 66 58 67 80 78 60 60 65 69 56 70 63